QPF
0.00 0.00 0.01 0.03 0.12 0.09 0.02 0.01 0.01 0.01 0.00 0.00 0.00 0.00 0.00 0.02 0.05 0.07 0.06 0.07 0.09 0.08 0.08 0.08 0.10 0.14 0.15 0.15 0.14 0.13 0.12 0.11 0.09 0.08 0.07 0.07 0.07 0.07 0.08 0.07 0.06 0.05 0.06 0.06 0.06 0.05 0.05 0.06 0.04
0.00 0.00 0.01 0.06 0.10 0.04 0.02 0.02 0.02 0.01 0.00 0.00 0.00 0.00 0.01 0.01 0.01 0.03 0.06 0.09 0.08 0.07 0.07 0.06 0.06 0.08 0.09 0.10 0.11 0.12 0.10 0.10 0.08 0.07 0.08 0.06 0.05 0.05 0.06 0.07 0.06 0.06 0.06 0.06 0.07 0.06 0.06 0.06 0.05
0.00 0.00 0.02 0.08 0.04 0.01 0.01 0.01 0.01 0.00 0.00 0.00 0.00 0.01 0.01 0.02 0.02 0.05 0.08 0.09 0.06 0.05 0.05 0.06 0.08 0.09 0.09 0.08 0.09 0.10 0.08 0.08 0.08 0.08 0.07 0.05 0.05 0.05 0.06 0.05 0.05 0.06 0.06 0.06 0.09 0.09 0.07 0.07 0.07
0.00 0.02 0.02 0.03 0.01 0.00 0.00 0.01 0.00 0.00 0.00 0.00 0.01 0.01 0.02 0.02 0.03 0.05 0.07 0.08 0.05 0.05 0.05 0.07 0.12 0.14 0.10 0.07 0.07 0.07 0.08 0.09 0.08 0.08 0.06 0.04 0.04 0.06 0.06 0.05 0.05 0.06 0.06 0.07 0.11 0.13 0.09 0.08 0.07
0.02 0.03 0.04 0.02 0.01 0.01 0.01 0.01 0.00 0.00 0.00 0.00 0.01 0.02 0.02 0.03 0.04 0.05 0.08 0.10 0.06 0.06 0.05 0.07 0.15 0.15 0.09 0.06 0.07 0.07 0.06 0.07 0.06 0.06 0.06 0.04 0.04 0.05 0.04 0.07 0.13 0.10 0.08 0.10 0.12 0.12 0.11 0.10 0.07
0.08 0.04 0.03 0.01 0.01 0.01 0.01 0.01 0.01 0.01 0.01 0.01 0.01 0.01 0.02 0.04 0.04 0.05 0.08 0.07 0.05 0.07 0.08 0.09 0.12 0.11 0.07 0.05 0.05 0.06 0.06 0.06 0.05 0.04 0.05 0.05 0.05 0.05 0.05 0.14 0.20 0.20 0.16 0.10 0.09 0.09 0.09 0.09 0.06
0.04 0.03 0.01 0.00 0.00 0.00 0.00 0.00 0.01 0.01 0.01 0.01 0.01 0.02 0.03 0.04 0.04 0.04 0.05 0.04 0.05 0.08 0.09 0.13 0.13 0.10 0.07 0.04 0.03 0.04 0.04 0.04 0.04 0.04 0.04 0.05 0.06 0.06 0.06 0.10 0.16 0.16 0.11 0.08 0.06 0.06 0.06 0.05 0.03
0.01 0.01 0.01 0.00 0.00 0.01 0.00 0.00 0.00 0.00 0.00 0.00 0.02 0.05 0.04 0.03 0.04 0.03 0.03 0.03 0.06 0.07 0.09 0.12 0.13 0.10 0.06 0.05 0.03 0.03 0.03 0.03 0.04 0.04 0.04 0.04 0.04 0.05 0.06 0.06 0.07 0.09 0.09 0.07 0.07 0.07 0.05 0.03 0.03
0.00 0.01 0.01 0.00 0.00 0.01 0.00 0.00 0.00 0.00 0.00 0.00 0.02 0.04 0.06 0.04 0.03 0.03 0.03 0.04 0.06 0.08 0.09 0.09 0.10 0.10 0.08 0.07 0.05 0.04 0.02 0.03 0.04 0.05 0.04 0.05 0.08 0.08 0.06 0.05 0.06 0.08 0.08 0.08 0.07 0.08 0.05 0.04 0.05
0.01 0.02 0.00 0.00 0.00 0.00 0.00 0.00 0.00 0.00 0.00 0.01 0.01 0.02 0.05 0.03 0.01 0.02 0.03 0.04 0.07 0.06 0.06 0.06 0.07 0.09 0.09 0.07 0.07 0.08 0.06 0.05 0.08 0.09 0.05 0.08 0.13 0.12 0.08 0.06 0.05 0.06 0.07 0.07 0.06 0.06 0.07 0.06 0.10
0.00 0.01 0.01 0.00 0.00 0.00 0.00 0.00 0.00 0.00 0.00 0.01 0.01 0.01 0.02 0.02 0.01 0.01 0.03 0.05 0.05 0.05 0.06 0.06 0.05 0.08 0.08 0.07 0.07 0.09 0.09 0.10 0.10 0.09 0.08 0.08 0.10 0.09 0.08 0.09 0.07 0.06 0.05 0.05 0.05 0.07 0.08 0.07 0.06
0.00 0.01 0.01 0.00 0.00 0.00 0.00 0.00 0.00 0.00 0.00 0.00 0.00 0.00 0.00 0.02 0.02 0.02 0.03 0.03 0.03 0.04 0.05 0.04 0.03 0.05 0.08 0.08 0.06 0.08 0.06 0.05 0.05 0.05 0.05 0.07 0.09 0.10 0.10 0.10 0.10 0.10 0.09 0.08 0.06 0.06 0.09 0.08 0.05
0.00 0.00 0.00 0.00 0.00 0.00 0.00 0.00 0.00 0.00 0.00 0.00 0.00 0.00 0.00 0.01 0.03 0.03 0.02 0.02 0.02 0.02 0.03 0.04 0.03 0.03 0.05 0.09 0.08 0.07 0.06 0.03 0.02 0.05 0.07 0.08 0.07 0.08 0.09 0.11 0.13 0.11 0.10 0.07 0.07 0.06 0.09 0.08 0.06
0.00 0.00 0.00 0.00 0.00 0.00 0.00 0.00 0.00 0.00 0.00 0.00 0.00 0.00 0.00 0.00 0.02 0.02 0.02 0.02 0.02 0.01 0.02 0.03 0.02 0.02 0.03 0.04 0.07 0.07 0.08 0.04 0.03 0.07 0.10 0.09 0.09 0.10 0.10 0.11 0.11 0.09 0.09 0.10 0.08 0.07 0.09 0.09 0.08
0.01 0.00 0.00 0.00 0.00 0.00 0.00 0.00 0.00 0.00 0.00 0.00 0.00 0.00 0.00 0.00 0.01 0.01 0.01 0.01 0.01 0.01 0.01 0.02 0.01 0.01 0.02 0.04 0.05 0.07 0.07 0.04 0.03 0.05 0.08 0.08 0.08 0.09 0.09 0.09 0.08 0.07 0.08 0.09 0.07 0.07 0.08 0.08 0.08
0.01 0.01 0.01 0.01 0.00 0.00 0.02 0.03 0.01 0.00 0.00 0.00 0.00 0.00 0.00 0.00 0.00 0.00 0.00 0.00 0.01 0.01 0.01 0.01 0.01 0.01 0.02 0.04 0.04 0.04 0.04 0.03 0.02 0.03 0.06 0.06 0.06 0.05 0.07 0.07 0.06 0.06 0.07 0.06 0.06 0.06 0.07 0.09 0.11
0.01 0.01 0.01 0.01 0.00 0.00 0.01 0.02 0.01 0.00 0.00 0.00 0.00 0.00 0.00 0.00 0.00 0.00 0.00 0.00 0.00 0.01 0.01 0.01 0.01 0.01 0.02 0.02 0.04 0.04 0.03 0.02 0.02 0.04 0.06 0.05 0.04 0.03 0.04 0.06 0.08 0.07 0.06 0.04 0.04 0.07 0.09 0.10 0.12
0.01 0.01 0.01 0.00 0.00 0.00 0.02 0.03 0.01 0.00 0.00 0.00 0.00 0.00 0.00 0.00 0.00 0.00 0.00 0.00 0.00 0.00 0.00 0.01 0.01 0.02 0.02 0.02 0.04 0.05 0.05 0.04 0.03 0.04 0.05 0.05 0.04 0.03 0.05 0.06 0.06 0.05 0.06 0.06 0.07 0.09 0.10 0.11 0.13
0.00 0.01 0.01 0.00 0.00 0.00 0.00 0.01 0.00 0.00 0.00 0.00 0.00 0.00 0.00 0.00 0.00 0.00 0.00 0.00 0.00 0.00 0.00 0.01 0.02 0.04 0.04 0.05 0.04 0.05 0.05 0.05 0.04 0.04 0.04 0.05 0.03 0.04 0.05 0.07 0.09 0.05 0.06 0.07 0.07 0.09 0.13 0.11 0.12
0.00 0.02 0.02 0.01 0.01 0.01 0.00 0.00 0.00 0.00 0.00 0.00 0.00 0.01 0.00 0.00 0.00 0.00 0.00 0.00 0.00 0.00 0.00 0.01 0.01 0.03 0.03 0.04 0.04 0.06 0.06 0.05 0.05 0.06 0.07 0.04 0.03 0.05 0.06 0.08 0.06 0.06 0.08 0.08 0.07 0.10 0.14 0.13 0.12
0.00 0.01 0.02 0.02 0.02 0.01 0.00 0.00 0.00 0.00 0.00 0.00 0.00 0.00 0.00 0.00 0.00 0.00 0.00 0.00 0.00 0.00 0.00 0.00 0.01 0.02 0.04 0.05 0.04 0.04 0.06 0.05 0.07 0.07 0.09 0.06 0.05 0.05 0.07 0.08 0.08 0.08 0.07 0.10 0.08 0.09 0.12 0.14 0.13
0.00 0.00 0.01 0.01 0.03 0.01 0.00 0.01 0.00 0.00 0.00 0.00 0.00 0.00 0.00 0.00 0.01 0.01 0.00 0.00 0.00 0.00 0.00 0.00 0.00 0.01 0.02 0.04 0.04 0.04 0.05 0.05 0.07 0.08 0.07 0.07 0.07 0.06 0.06 0.05 0.06 0.08 0.08 0.10 0.07 0.11 0.12 0.13 0.13
0.00 0.00 0.00 0.01 0.02 0.01 0.01 0.02 0.00 0.00 0.00 0.00 0.00 0.01 0.01 0.00 0.00 0.00 0.00 0.00 0.00 0.00 0.00 0.00 0.00 0.01 0.01 0.02 0.03 0.03 0.04 0.05 0.05 0.05 0.06 0.06 0.06 0.05 0.05 0.06 0.06 0.06 0.06 0.07 0.08 0.11 0.11 0.11 0.11
0.00 0.00 0.01 0.01 0.01 0.01 0.02 0.02 0.00 0.00 0.00 0.01 0.00 0.00 0.00 0.00 0.00 0.00 0.00 0.00 0.00 0.00 0.00 0.00 0.00 0.01 0.01 0.01 0.01 0.02 0.03 0.06 0.07 0.08 0.08 0.08 0.07 0.07 0.05 0.06 0.06 0.05 0.05 0.06 0.07 0.09 0.09 0.09 0.11
0.00 0.00 0.01 0.01 0.00 0.00 0.00 0.00 0.00 0.00 0.00 0.01 0.01 0.00 0.00 0.00 0.00 0.00 0.00 0.00 0.00 0.00 0.00 0.00 0.00 0.01 0.01 0.01 0.01 0.02 0.04 0.05 0.06 0.07 0.09 0.09 0.08 0.08 0.07 0.09 0.10 0.08 0.07 0.06 0.07 0.10 0.12 0.11 0.09
0.00 0.00 0.02 0.03 0.02 0.01 0.01 0.00 0.00 0.01 0.01 0.00 0.00 0.00 0.00 0.00 0.00 0.00 0.00 0.00 0.00 0.00 0.00 0.00 0.00 0.01 0.01 0.01 0.02 0.04 0.05 0.05 0.06 0.09 0.12 0.15 0.13 0.12 0.11 0.13 0.14 0.08 0.06 0.06 0.09 0.09 0.11 0.12 0.11
0.00 0.00 0.00 0.02 0.01 0.02 0.01 0.01 0.01 0.01 0.02 0.01 0.01 0.00 0.00 0.00 0.00 0.00 0.00 0.00 0.00 0.00 0.00 0.00 0.01 0.02 0.03 0.03 0.04 0.05 0.06 0.07 0.09 0.11 0.10 0.11 0.13 0.10 0.10 0.10 0.10 0.08 0.07 0.08 0.11 0.10 0.10 0.12 0.12
0.00 0.00 0.00 0.01 0.01 0.02 0.02 0.01 0.01 0.02 0.02 0.02 0.02 0.01 0.00 0.00 0.00 0.00 0.00 0.00 0.00 0.00 0.00 0.01 0.01 0.04 0.06 0.09 0.12 0.12 0.11 0.10 0.09 0.10 0.09 0.08 0.09 0.10 0.11 0.12 0.14 0.15 0.10 0.09 0.10 0.09 0.10 0.13 0.14
0.00 0.00 0.00 0.00 0.00 0.01 0.03 0.03 0.03 0.02 0.04 0.07 0.04 0.01 0.00 0.00 0.00 0.00 0.00 0.00 0.00 0.00 0.00 0.02 0.04 0.06 0.11 0.15 0.16 0.12 0.07 0.05 0.05 0.07 0.07 0.07 0.08 0.08 0.10 0.13 0.14 0.14 0.11 0.09 0.08 0.07 0.09 0.12 0.15
0.00 0.00 0.00 0.00 0.00 0.00 0.02 0.03 0.02 0.03 0.05 0.04 0.01 0.01 0.00 0.00 0.00 0.00 0.00 0.00 0.00 0.01 0.02 0.03 0.04 0.05 0.07 0.07 0.07 0.05 0.03 0.03 0.03 0.03 0.04 0.04 0.04 0.04 0.05 0.06 0.08 0.09 0.10 0.10 0.09 0.09 0.11 0.10 0.10
MSLP
1000.92 1001.52 1002.22 1002.92 1003.53 1003.98 1004.23 1004.29 1004.21 1004.05 1003.93 1003.92 1004.05 1004.36 1004.79 1005.28 1005.75 1006.14 1006.41 1006.54 1006.59 1006.59 1006.62 1006.73 1006.95 1007.27 1007.65 1008.05 1008.42 1008.72 1008.96 1009.14 1009.30 1009.48 1009.70 1009.99 1010.32 1010.69 1011.06 1011.41 1011.72 1011.98 1012.21 1012.43 1012.66 1012.88 1013.12 1013.35 1013.56
1001.12 1001.77 1002.45 1003.07 1003.56 1003.87 1003.99 1003.94 1003.79 1003.63 1003.53 1003.57 1003.78 1004.13 1004.60 1005.11 1005.60 1006.00 1006.29 1006.48 1006.61 1006.73 1006.88 1007.11 1007.42 1007.81 1008.24 1008.65 1009.01 1009.30 1009.52 1009.69 1009.83 1009.99 1010.19 1010.43 1010.72 1011.03 1011.35 1011.65 1011.93 1012.19 1012.44 1012.70 1012.97 1013.24 1013.49 1013.72 1013.91
1001.40 1002.07 1002.72 1003.25 1003.61 1003.76 1003.74 1003.58 1003.37 1003.19 1003.11 1003.20 1003.45 1003.84 1004.33 1004.85 1005.34 1005.75 1006.07 1006.31 1006.53 1006.75 1007.03 1007.37 1007.79 1008.25 1008.72 1009.14 1009.51 1009.79 1009.99 1010.15 1010.29 1010.44 1010.62 1010.84 1011.08 1011.34 1011.60 1011.87 1012.13 1012.40 1012.68 1012.99 1013.30 1013.61 1013.89 1014.11 1014.28
1001.66 1002.36 1002.96 1003.40 1003.64 1003.66 1003.52 1003.27 1003.01 1002.82 1002.76 1002.89 1003.17 1003.60 1004.09 1004.61 1005.08 1005.50 1005.84 1006.15 1006.45 1006.78 1007.17 1007.62 1008.13 1008.65 1009.14 1009.57 1009.92 1010.19 1010.39 1010.55 1010.69 1010.85 1011.03 1011.23 1011.45 1011.68 1011.91 1012.15 1012.40 1012.67 1012.98 1013.33 1013.68 1014.02 1014.30 1014.52 1014.64
1001.84 1002.53 1003.09 1003.46 1003.60 1003.53 1003.31 1003.02 1002.75 1002.58 1002.56 1002.72 1003.04 1003.47 1003.97 1004.46 1004.93 1005.34 1005.71 1006.08 1006.46 1006.90 1007.40 1007.95 1008.52 1009.07 1009.57 1009.98 1010.31 1010.55 1010.73 1010.89 1011.05 1011.23 1011.43 1011.65 1011.87 1012.09 1012.30 1012.52 1012.76 1013.04 1013.37 1013.73 1014.09 1014.44 1014.71 1014.89 1014.98
1001.88 1002.55 1003.06 1003.36 1003.45 1003.34 1003.11 1002.83 1002.60 1002.48 1002.52 1002.73 1003.07 1003.51 1003.99 1004.46 1004.91 1005.32 1005.72 1006.15 1006.63 1007.16 1007.76 1008.39 1009.01 1009.57 1010.05 1010.42 1010.70 1010.90 1011.06 1011.21 1011.39 1011.60 1011.84 1012.09 1012.33 1012.56 1012.78 1012.99 1013.23 1013.50 1013.81 1014.16 1014.51 1014.82 1015.07 1015.20 1015.23
1001.77 1002.37 1002.82 1003.08 1003.15 1003.05 1002.86 1002.65 1002.51 1002.48 1002.61 1002.87 1003.25 1003.68 1004.13 1004.58 1005.00 1005.41 1005.85 1006.34 1006.91 1007.55 1008.23 1008.93 1009.58 1010.14 1010.59 1010.90 1011.11 1011.25 1011.37 1011.51 1011.70 1011.95 1012.24 1012.53 1012.82 1013.08 1013.30 1013.51 1013.73 1013.97 1014.25 1014.56 1014.87 1015.13 1015.32 1015.40 1015.37
1001.53 1002.04 1002.42 1002.64 1002.70 1002.64 1002.54 1002.44 1002.42 1002.52 1002.74 1003.07 1003.47 1003.90 1004.32 1004.73 1005.13 1005.54 1006.01 1006.57 1007.22 1007.95 1008.73 1009.49 1010.17 1010.72 1011.12 1011.37 1011.51 1011.58 1011.66 1011.78 1011.98 1012.26 1012.59 1012.94 1013.27 1013.56 1013.80 1014.01 1014.20 1014.41 1014.63 1014.88 1015.12 1015.32 1015.45 1015.47 1015.40
1001.22 1001.61 1001.90 1002.07 1002.13 1002.14 1002.13 1002.17 1002.29 1002.52 1002.85 1003.24 1003.66 1004.07 1004.46 1004.83 1005.19 1005.60 1006.10 1006.71 1007.44 1008.26 1009.12 1009.94 1010.66 1011.21 1011.58 1011.77 1011.85 1011.86 1011.89 1011.99 1012.19 1012.49 1012.86 1013.26 1013.63 1013.96 1014.21 1014.41 1014.58 1014.74 1014.90 1015.08 1015.25 1015.39 1015.46 1015.44 1015.33
1000.93 1001.18 1001.36 1001.46 1001.52 1001.57 1001.66 1001.83 1002.09 1002.44 1002.86 1003.30 1003.74 1004.13 1004.48 1004.80 1005.13 1005.53 1006.04 1006.69 1007.48 1008.38 1009.31 1010.19 1010.94 1011.51 1011.87 1012.03 1012.07 1012.04 1012.04 1012.11 1012.31 1012.63 1013.02 1013.45 1013.86 1014.21 1014.48 1014.67 1014.81 1014.93 1015.04 1015.16 1015.27 1015.35 1015.38 1015.33 1015.22
1000.72 1000.83 1000.88 1000.90 1000.93 1001.01 1001.17 1001.43 1001.80 1002.25 1002.74 1003.23 1003.67 1004.05 1004.36 1004.63 1004.92 1005.29 1005.80 1006.47 1007.30 1008.24 1009.23 1010.17 1010.96 1011.56 1011.93 1012.10 1012.13 1012.09 1012.07 1012.14 1012.33 1012.65 1013.06 1013.51 1013.94 1014.30 1014.58 1014.77 1014.90 1014.99 1015.06 1015.14 1015.21 1015.26 1015.27 1015.22 1015.12
1000.65 1000.61 1000.53 1000.46 1000.44 1000.52 1000.71 1001.03 1001.47 1001.98 1002.52 1003.03 1003.48 1003.83 1004.11 1004.34 1004.59 1004.93 1005.41 1006.08 1006.91 1007.88 1008.89 1009.86 1010.70 1011.34 1011.75 1011.95 1012.01 1011.99 1011.98 1012.06 1012.25 1012.57 1012.98 1013.44 1013.87 1014.25 1014.53 1014.73 1014.85 1014.92 1014.98 1015.04 1015.10 1015.15 1015.17 1015.14 1015.06
1000.72 1000.56 1000.36 1000.20 1000.11 1000.15 1000.33 1000.67 1001.13 1001.67 1002.22 1002.75 1003.19 1003.53 1003.79 1003.99 1004.21 1004.52 1004.97 1005.60 1006.41 1007.35 1008.36 1009.34 1010.21 1010.89 1011.35 1011.62 1011.73 1011.77 1011.80 1011.90 1012.10 1012.42 1012.83 1013.27 1013.70 1014.08 1014.37 1014.57 1014.69 1014.78 1014.84 1014.91 1014.99 1015.06 1015.10 1015.11 1015.07
1000.92 1000.67 1000.38 1000.12 999.96 999.94 1000.09 1000.39 1000.82 1001.35 1001.90 1002.42 1002.86 1003.21 1003.47 1003.68 1003.89 1004.18 1004.59 1005.17 1005.91 1006.80 1007.76 1008.71 1009.58 1010.29 1010.81 1011.15 1011.35 1011.46 1011.55 1011.69 1011.91 1012.23 1012.62 1013.05 1013.47 1013.84 1014.13 1014.33 1014.48 1014.58 1014.67 1014.77 1014.87 1014.98 1015.08 1015.13 1015.13
1001.22 1000.91 1000.55 1000.22 999.99 999.90 999.98 1000.21 1000.59 1001.06 1001.57 1002.08 1002.53 1002.90 1003.20 1003.44 1003.67 1003.96 1004.34 1004.86 1005.53 1006.32 1007.20 1008.09 1008.92 1009.64 1010.21 1010.62 1010.90 1011.10 1011.27 1011.46 1011.71 1012.03 1012.40 1012.81 1013.21 1013.56 1013.85 1014.07 1014.23 1014.36 1014.48 1014.61 1014.76 1014.92 1015.06 1015.17 1015.21
1001.56 1001.22 1000.83 1000.46 1000.17 1000.01 1000.00 1000.14 1000.42 1000.80 1001.25 1001.73 1002.18 1002.59 1002.95 1003.26 1003.56 1003.87 1004.25 1004.72 1005.31 1005.99 1006.76 1007.56 1008.33 1009.03 1009.62 1010.09 1010.45 1010.74 1010.98 1011.22 1011.50 1011.83 1012.19 1012.57 1012.95 1013.29 1013.57 1013.80 1013.98 1014.13 1014.29 1014.46 1014.64 1014.84 1015.04 1015.19 1015.28
1001.89 1001.55 1001.16 1000.79 1000.47 1000.24 1000.14 1000.16 1000.30 1000.56 1000.91 1001.33 1001.78 1002.23 1002.67 1003.08 1003.47 1003.86 1004.27 1004.72 1005.23 1005.82 1006.47 1007.15 1007.84 1008.50 1009.09 1009.60 1010.03 1010.39 1010.70 1011.00 1011.30 1011.63 1011.98 1012.34 1012.69 1013.02 1013.30 1013.53 1013.73 1013.91 1014.09 1014.29 1014.51 1014.74 1014.97 1015.17 1015.30
1002.17 1001.87 1001.52 1001.17 1000.85 1000.57 1000.37 1000.24 1000.22 1000.31 1000.52 1000.84 1001.26 1001.74 1002.26 1002.79 1003.31 1003.80 1004.28 1004.74 1005.22 1005.73 1006.28 1006.86 1007.46 1008.06 1008.64 1009.17 1009.64 1010.06 1010.43 1010.77 1011.10 1011.43 1011.77 1012.11 1012.44 1012.76 1013.04 1013.29 1013.50 1013.71 1013.91 1014.12 1014.36 1014.61 1014.87 1015.10 1015.27
1002.37 1002.14 1001.88 1001.60 1001.30 1000.98 1000.67 1000.38 1000.15 1000.03 1000.05 1000.22 1000.56 1001.04 1001.62 1002.27 1002.93 1003.56 1004.15 1004.68 1005.17 1005.64 1006.11 1006.61 1007.14 1007.68 1008.24 1008.77 1009.28 1009.74 1010.15 1010.53 1010.87 1011.20 1011.53 1011.86 1012.18 1012.49 1012.78 1013.05 1013.29 1013.52 1013.74 1013.96 1014.20 1014.46 1014.73 1014.98 1015.19
1002.50 1002.38 1002.24 1002.06 1001.81 1001.46 1001.04 1000.57 1000.10 999.72 999.48 999.46 999.66 1000.09 1000.71 1001.45 1002.25 1003.03 1003.76 1004.39 1004.94 1005.42 1005.88 1006.33 1006.81 1007.32 1007.86 1008.40 1008.93 1009.42 1009.86 1010.26 1010.61 1010.94 1011.26 1011.58 1011.89 1012.21 1012.53 1012.82 1013.10 1013.35 1013.59 1013.82 1014.07 1014.32 1014.59 1014.85 1015.09
1002.57 1002.60 1002.62 1002.56 1002.38 1002.02 1001.49 1000.82 1000.08 999.40 998.87 998.58 998.59 998.92 999.51 1000.32 1001.23 1002.17 1003.04 1003.80 1004.45 1005.00 1005.48 1005.94 1006.42 1006.92 1007.46 1008.01 1008.56 1009.08 1009.55 1009.96 1010.31 1010.63 1010.94 1011.25 1011.57 1011.91 1012.25 1012.59 1012.90 1013.20 1013.46 1013.71 1013.95 1014.19 1014.45 1014.71 1014.96
1002.62 1002.82 1003.02 1003.11 1003.00 1002.64 1002.00 1001.13 1000.12 999.12 998.26 997.68 997.45 997.62 998.14 998.96 999.95 1001.00 1002.01 1002.91 1003.68 1004.33 1004.88 1005.39 1005.90 1006.44 1007.01 1007.59 1008.17 1008.72 1009.20 1009.62 1009.97 1010.28 1010.57 1010.87 1011.19 1011.55 1011.93 1012.31 1012.69 1013.03 1013.33 1013.60 1013.84 1014.07 1014.31 1014.55 1014.81
1002.68 1003.08 1003.46 1003.69 1003.66 1003.29 1002.55 1001.50 1000.23 998.92 997.75 996.86 996.38 996.35 996.76 997.52 998.53 999.66 1000.77 1001.79 1002.68 1003.43 1004.08 1004.67 1005.25 1005.85 1006.47 1007.11 1007.74 1008.32 1008.82 1009.25 1009.59 1009.88 1010.15 1010.43 1010.76 1011.13 1011.54 1011.98 1012.41 1012.81 1013.17 1013.46 1013.71 1013.93 1014.14 1014.36 1014.60
1002.82 1003.38 1003.92 1004.27 1004.31 1003.94 1003.12 1001.91 1000.43 998.86 997.40 996.24 995.51 995.28 995.53 996.21 997.18 998.31 999.47 1000.56 1001.53 1002.37 1003.11 1003.79 1004.45 1005.13 1005.84 1006.55 1007.24 1007.86 1008.40 1008.83 1009.17 1009.44 1009.69 1009.95 1010.27 1010.65 1011.09 1011.57 1012.06 1012.52 1012.92 1013.26 1013.52 1013.73 1013.92 1014.11 1014.32
1003.04 1003.72 1004.37 1004.81 1004.89 1004.51 1003.63 1002.32 1000.69 998.94 997.28 995.91 994.97 994.55 994.65 995.19 996.07 997.14 998.27 999.36 1000.35 1001.23 1002.03 1002.78 1003.52 1004.29 1005.09 1005.88 1006.65 1007.33 1007.91 1008.37 1008.70 1008.96 1009.19 1009.43 1009.73 1010.10 1010.56 1011.08 1011.61 1012.13 1012.58 1012.95 1013.23 1013.44 1013.61 1013.77 1013.94
1003.35 1004.08 1004.76 1005.22 1005.31 1004.91 1004.01 1002.65 1000.96 999.13 997.38 995.89 994.83 994.26 994.21 994.60 995.34 996.28 997.30 998.31 999.25 1000.11 1000.91 1001.69 1002.49 1003.33 1004.21 1005.09 1005.94 1006.71 1007.35 1007.84 1008.20 1008.45 1008.66 1008.88 1009.16 1009.52 1009.98 1010.51 1011.07 1011.62 1012.11 1012.52 1012.83 1013.04 1013.20 1013.33 1013.47
1003.71 1004.41 1005.04 1005.45 1005.49 1005.08 1004.18 1002.84 1001.18 999.39 997.66 996.17 995.07 994.43 994.26 994.50 995.06 995.82 996.66 997.50 998.30 999.06 999.80 1000.56 1001.37 1002.26 1003.21 1004.18 1005.11 1005.97 1006.68 1007.24 1007.64 1007.91 1008.13 1008.33 1008.59 1008.93 1009.37 1009.90 1010.47 1011.04 1011.55 1011.98 1012.31 1012.54 1012.70 1012.81 1012.92
1004.09 1004.65 1005.14 1005.43 1005.39 1004.95 1004.07 1002.82 1001.29 999.64 998.06 996.68 995.64 995.00 994.75 994.86 995.23 995.76 996.35 996.96 997.55 998.14 998.75 999.42 1000.21 1001.10 1002.09 1003.14 1004.16 1005.11 1005.92 1006.55 1007.02 1007.35 1007.58 1007.79 1008.04 1008.36 1008.77 1009.28 1009.84 1010.40 1010.93 1011.37 1011.72 1011.97 1012.13 1012.24 1012.34
1004.41 1004.76 1005.04 1005.15 1004.99 1004.51 1003.69 1002.57 1001.24 999.83 998.49 997.33 996.43 995.86 995.58 995.57 995.75 996.03 996.35 996.68 997.00 997.36 997.79 998.33 999.04 999.90 1000.91 1002.00 1003.10 1004.14 1005.05 1005.79 1006.34 1006.74 1007.03 1007.27 1007.53 1007.83 1008.22 1008.70 1009.22 1009.77 1010.28 1010.73 1011.09 1011.35 1011.53 1011.66 1011.77
1004.64 1004.73 1004.75 1004.65 1004.36 1003.83 1003.07 1002.12 1001.04 999.93 998.89 998.00 997.31 996.84 996.58 996.47 996.47 996.50 996.54 996.57 996.61 996.71 996.93 997.31 997.91 998.72 999.70 1000.82 1001.98 1003.10 1004.11 1004.95 1005.62 1006.11 1006.48 1006.77 1007.05 1007.35 1007.72 1008.16 1008.65 1009.16 1009.65 1010.09 1010.45 1010.73 1010.94 1011.10 1011.24
Thickness
5839 5840 5839 5831 5810 5800 5798 5809 5816 5814 5815 5823 5824 5817 5805 5797 5786 5773 5797 5805 5802 5796 5789 5786 5784 5782 5781 5780 5778 5777 5776 5775 5774 5773 5773 5773 5772 5771 5771 5771 5770 5770 5769 5768 5768 5767 5766 5765 5764
5849 5849 5839 5823 5803 5792 5797 5813 5813 5816 5823 5828 5824 5817 5806 5799 5804 5800 5802 5805 5804 5797 5791 5786 5783 5781 5780 5778 5777 5776 5775 5773 5772 5772 5771 5771 5771 5770 5770 5770 5770 5769 5769 5768 5766 5766 5765 5764 5763
5852 5853 5833 5820 5812 5802 5802 5818 5820 5827 5832 5827 5819 5815 5805 5799 5804 5803 5807 5809 5805 5798 5791 5785 5782 5781 5779 5777 5776 5775 5774 5773 5772 5771 5770 5770 5770 5769 5769 5769 5769 5768 5768 5767 5766 5765 5764 5763 5762
5851 5846 5837 5824 5817 5824 5826 5828 5831 5827 5830 5831 5822 5807 5806 5813 5811 5811 5813 5811 5804 5798 5792 5785 5783 5781 5778 5776 5775 5773 5772 5772 5771 5770 5770 5769 5769 5769 5768 5768 5767 5767 5767 5766 5765 5764 5763 5763 5762
5852 5839 5822 5820 5826 5835 5841 5841 5839 5828 5824 5825 5818 5801 5799 5814 5818 5816 5815 5811 5804 5799 5793 5786 5783 5781 5778 5776 5774 5773 5771 5771 5770 5770 5769 5769 5769 5768 5768 5767 5767 5767 5766 5765 5764 5763 5763 5762 5762
5842 5837 5818 5817 5827 5838 5844 5847 5841 5831 5826 5826 5817 5803 5799 5814 5815 5815 5816 5812 5807 5801 5794 5787 5783 5780 5778 5776 5774 5772 5771 5770 5770 5769 5769 5768 5768 5768 5767 5768 5769 5766 5765 5764 5763 5763 5762 5761 5761
5840 5832 5824 5832 5830 5833 5844 5852 5842 5832 5826 5827 5826 5805 5802 5811 5816 5818 5816 5813 5809 5803 5796 5788 5784 5781 5778 5776 5774 5772 5771 5770 5769 5769 5768 5768 5767 5767 5766 5766 5766 5765 5764 5764 5763 5762 5762 5762 5761
5866 5846 5835 5840 5834 5832 5850 5853 5849 5839 5831 5841 5836 5810 5800 5811 5820 5820 5816 5811 5808 5804 5798 5793 5788 5783 5780 5777 5774 5772 5771 5770 5769 5769 5768 5768 5767 5766 5766 5765 5765 5764 5764 5763 5762 5762 5761 5761 5761
5881 5846 5833 5842 5839 5841 5854 5848 5850 5854 5843 5840 5839 5828 5821 5824 5823 5817 5811 5807 5804 5802 5800 5797 5792 5787 5784 5780 5776 5774 5772 5771 5770 5769 5769 5768 5767 5767 5766 5765 5765 5764 5763 5763 5762 5761 5761 5761 5761
5870 5838 5844 5861 5860 5854 5857 5852 5851 5846 5834 5830 5828 5829 5829 5826 5821 5814 5808 5803 5800 5799 5799 5798 5795 5791 5787 5784 5778 5776 5775 5773 5772 5771 5770 5769 5769 5768 5767 5765 5765 5764 5763 5762 5761 5760 5760 5760 5761
5874 5852 5864 5871 5871 5868 5859 5857 5860 5843 5828 5829 5824 5823 5826 5824 5821 5816 5812 5809 5805 5803 5801 5799 5796 5793 5789 5785 5781 5779 5777 5775 5774 5773 5773 5772 5770 5769 5768 5766 5764 5764 5763 5762 5761 5760 5761 5763 5763
5874 5872 5875 5874 5876 5871 5864 5861 5856 5849 5842 5846 5841 5835 5829 5824 5821 5819 5815 5812 5810 5805 5803 5801 5798 5794 5790 5787 5785 5782 5779 5777 5776 5774 5774 5773 5772 5771 5769 5767 5766 5765 5765 5764 5763 5762 5763 5764 5764
5874 5873 5880 5881 5879 5875 5869 5860 5855 5851 5856 5854 5846 5838 5832 5828 5826 5824 5822 5818 5813 5807 5804 5802 5799 5794 5791 5788 5786 5785 5782 5780 5778 5775 5774 5774 5773 5771 5770 5768 5767 5767 5767 5766 5765 5765 5764 5763 5764
5877 5879 5880 5881 5878 5875 5865 5860 5856 5852 5859 5851 5843 5837 5836 5832 5829 5825 5821 5817 5813 5809 5806 5803 5799 5795 5791 5788 5786 5785 5783 5781 5779 5776 5775 5774 5773 5772 5770 5768 5767 5768 5767 5767 5766 5765 5764 5763 5763
5882 5868 5867 5875 5877 5875 5867 5848 5851 5859 5859 5848 5843 5840 5837 5836 5833 5827 5824 5820 5816 5811 5808 5805 5801 5797 5792 5789 5787 5786 5785 5783 5781 5778 5776 5774 5773 5771 5770 5768 5767 5768 5767 5767 5766 5765 5764 5763 5763
5869 5853 5841 5862 5873 5875 5856 5827 5850 5861 5856 5846 5844 5842 5838 5836 5835 5832 5829 5825 5820 5815 5810 5807 5805 5799 5794 5790 5788 5787 5787 5785 5782 5779 5777 5775 5773 5771 5770 5769 5768 5768 5767 5766 5765 5764 5762 5761 5761
5852 5840 5839 5855 5874 5873 5857 5837 5855 5863 5856 5848 5846 5844 5840 5836 5836 5835 5833 5828 5823 5818 5812 5807 5805 5800 5796 5792 5790 5788 5787 5785 5783 5780 5778 5775 5773 5772 5771 5770 5769 5768 5767 5766 5765 5764 5762 5759 5758
5840 5846 5847 5852 5870 5871 5855 5849 5858 5867 5862 5853 5850 5846 5842 5838 5837 5838 5836 5832 5826 5820 5814 5809 5805 5802 5798 5795 5791 5789 5787 5786 5784 5782 5779 5776 5774 5773 5772 5770 5769 5768 5767 5765 5764 5762 5761 5759 5758
5857 5851 5846 5860 5877 5868 5857 5854 5860 5869 5863 5856 5852 5848 5843 5842 5843 5842 5838 5833 5827 5821 5815 5810 5805 5802 5798 5794 5790 5786 5784 5785 5784 5783 5781 5778 5776 5774 5773 5771 5769 5768 5766 5764 5763 5761 5758 5757 5758
5856 5847 5849 5861 5874 5863 5857 5858 5866 5869 5866 5863 5857 5851 5847 5845 5843 5840 5837 5833 5828 5821 5816 5811 5807 5803 5800 5797 5794 5791 5789 5787 5786 5785 5782 5779 5777 5775 5774 5771 5769 5767 5765 5763 5762 5760 5757 5756 5757
5850 5848 5849 5851 5861 5864 5854 5846 5855 5867 5873 5870 5866 5861 5856 5850 5843 5839 5836 5833 5829 5823 5818 5815 5810 5806 5802 5800 5796 5794 5790 5787 5785 5783 5781 5780 5778 5776 5774 5772 5769 5768 5766 5763 5761 5760 5756 5753 5755
5842 5862 5858 5852 5841 5835 5846 5821 5843 5860 5860 5861 5860 5859 5858 5855 5849 5842 5837 5833 5831 5827 5823 5818 5813 5808 5805 5802 5797 5792 5787 5783 5784 5783 5782 5781 5779 5777 5774 5771 5770 5768 5766 5764 5762 5761 5759 5756 5751
5853 5866 5858 5851 5839 5828 5835 5826 5837 5857 5848 5854 5859 5860 5860 5858 5853 5847 5842 5837 5835 5832 5826 5820 5814 5809 5806 5803 5799 5794 5791 5788 5787 5785 5782 5780 5779 5777 5775 5772 5770 5768 5766 5764 5763 5762 5760 5757 5754
5861 5854 5848 5845 5834 5808 5825 5825 5827 5847 5851 5854 5860 5860 5860 5860 5856 5851 5847 5841 5837 5834 5828 5822 5815 5809 5806 5803 5800 5795 5792 5789 5786 5783 5780 5778 5777 5777 5775 5772 5769 5767 5765 5764 5763 5761 5759 5758 5756
5850 5828 5807 5802 5804 5808 5835 5831 5834 5858 5867 5863 5859 5861 5862 5861 5857 5851 5845 5840 5836 5833 5828 5823 5816 5809 5806 5802 5799 5795 5792 5789 5785 5783 5780 5777 5777 5775 5773 5771 5768 5766 5765 5763 5762 5760 5758 5757 5755
5837 5828 5798 5784 5792 5811 5831 5827 5843 5867 5872 5872 5869 5867 5864 5862 5858 5852 5847 5842 5837 5833 5828 5824 5816 5809 5806 5801 5798 5795 5792 5788 5785 5783 5781 5778 5776 5775 5773 5771 5767 5764 5764 5763 5761 5759 5757 5755 5753
5826 5827 5835 5815 5808 5803 5815 5830 5846 5864 5862 5863 5861 5861 5858 5857 5856 5852 5848 5842 5837 5833 5829 5825 5817 5810 5805 5801 5796 5793 5790 5787 5784 5782 5780 5778 5776 5776 5773 5770 5766 5763 5762 5760 5759 5756 5754 5753 5751
5839 5832 5823 5810 5789 5783 5804 5815 5823 5836 5844 5849 5851 5849 5852 5854 5853 5850 5845 5840 5836 5833 5828 5824 5817 5810 5805 5800 5795 5792 5789 5786 5783 5780 5777 5775 5774 5773 5771 5768 5765 5762 5759 5757 5755 5753 5752 5750 5748
5822 5819 5814 5811 5808 5790 5785 5805 5844 5840 5840 5844 5845 5847 5847 5847 5847 5845 5843 5839 5834 5831 5826 5820 5814 5809 5804 5800 5796 5792 5787 5784 5780 5777 5775 5773 5771 5770 5767 5765 5762 5758 5755 5753 5752 5750 5749 5746 5745
5829 5823 5817 5796 5793 5801 5794 5804 5851 5848 5847 5845 5843 5843 5843 5842 5841 5839 5838 5834 5829 5824 5821 5816 5811 5807 5802 5799 5794 5790 5786 5782 5778 5774 5772 5770 5768 5766 5764 5762 5759 5755 5753 5751 5748 5746 5745 5743 5740